Location: Augustenthal
(51.7167°N, 10.2833°E)
Time: 20:26:22
(UTC+00:00)

Cosmos 1953 - Pass Details

Date: 18 May 2021
Orbit: 540 x 555 km, 82.5° (Epoch: 24 June)

Event Time Altitude Azimuth Distance (km) Brightness Sun altitude
Rises 23:32:20 0° 357° (N) 2,719 7.5 -18.4°
Reaches altitude 10° 23:34:44 10° 9° (N) 1,824 6.2 -18.4°
Maximum altitude 23:38:15 28° 70° (ENE) 1,041 3.9 -18.3°
Enters shadow 23:40:38 16° 120° (ESE) 1,461 4.2 -18.3°
